DateTime,F1_A11,F1_S11,BsB_S11,BsG_S11,BsR_S11,BbsB_S11,BbsG_S11,BbsR_S11,BaB_A11,BaG_A11,BaR_A11,T_S11,U_S11,P_S11,T1_A11
2016-04-27T00:00:00Z,0000388,20000608,,,,,,,,,,26.2,01.3,0683.1,34.7
2016-04-27T00:01:00Z,0000388,20000608,,,,,,,,,,26.2,01.3,0683.1,34.7
2016-04-27T00:02:00Z,0000388,20000608,,,,,,,,,,26.2,01.3,0683.1,34.7
2016-04-27T00:03:00Z,0000388,60000608,,,,,,,,,,26.2,01.3,0683.1,34.7
2016-04-27T00:04:00Z,0000388,41000608,0000.21,-000.30,-000.19,0000.06,-000.08,-000.23,-000.22,0000.02,-000.09,26.3,01.3,0683.9,34.7
2016-04-27T00:05:00Z,0000388,01000608,0000.55,0000.26,-000.12,0000.82,-000.05,-000.14,0000.06,0000.09,0000.08,26.3,01.3,0683.9,34.7
2016-04-27T00:06:00Z,0000388,01000608,0000.09,-000.12,-000.12,0000.08,0000.34,-000.02,0000.03,-000.10,0000.12,26.3,01.3,0683.9,34.7
2016-04-27T00:07:00Z,0000388,01000608,0000.36,0000.26,-000.10,0000.51,-000.08,0000.42,0000.13,0000.06,0000.04,26.3,01.3,0683.9,34.7
2016-04-27T00:08:00Z,0000388,01000608,0000.25,0000.19,-000.22,0000.54,0000.28,-000.12,0000.11,0000.03,-000.27,26.3,01.2,0683.9,34.7
2016-04-27T00:09:00Z,0000388,01000608,0000.31,-000.01,0000.16,-000.03,0000.12,0000.09,-000.22,-000.00,-000.04,26.3,01.3,0683.9,34.7
2016-04-27T00:10:00Z,0000388,01000608,0000.31,-000.01,-000.08,0000.26,0000.29,-000.08,-000.07,0000.05,0000.35,26.3,01.2,0683.9,34.7
2016-04-27T00:11:00Z,0000388,01000608,-000.87,-000.05,0000.52,0000.03,0000.23,0000.12,0000.08,-000.01,0000.11,26.3,01.2,0683.9,34.7
2016-04-27T00:12:00Z,0000388,01000608,0001.03,0000.48,-000.08,0000.43,-000.08,0000.23,0000.03,0000.03,-000.02,26.3,01.3,0683.9,34.7
2016-04-27T00:13:00Z,0000388,01000608,-000.19,-000.19,-000.10,0000.26,0000.25,-000.29,-000.06,-000.12,-000.11,26.3,01.2,0683.9,34.7
2016-04-27T00:14:00Z,0000388,01000608,0000.25,-000.02,-000.04,-000.28,-000.11,0000.46,0000.12,0000.04,-000.36,26.3,01.2,0683.8,34.7
2016-04-27T00:15:00Z,0000388,01000608,0000.11,0000.09,0000.01,-000.43,0000.09,0000.26,-000.09,-000.09,0000.20,26.3,01.3,0683.8,34.7
2016-04-27T00:16:00Z,0000388,01000608,-000.69,-000.12,-000.19,-000.20,0000.11,0000.26,0000.03,-000.00,0000.14,26.3,01.2,0683.8,34.7
2016-04-27T00:17:00Z,0000388,01000608,0000.38,0000.22,-000.13,0000.62,0000.12,0000.12,-000.05,0000.12,-000.37,26.3,01.2,0683.8,34.7
2016-04-27T00:18:00Z,0000388,01000608,0000.25,-000.28,-000.26,0000.26,0000.06,-000.11,-000.08,-000.09,0000.12,26.3,01.2,0683.8,34.7
2016-04-27T00:19:00Z,0000388,01000608,0000.16,-000.03,0000.02,0000.49,-000.25,0000.11,0000.10,-000.08,-000.21,26.3,01.2,0683.8,34.7
2016-04-27T00:20:00Z,0000388,01000608,0000.09,0000.03,0000.24,0000.40,0000.08,0000.29,0000.11,0000.19,0000.34,26.3,01.1,0683.8,34.7
2016-04-27T00:21:00Z,0000388,01000608,0000.57,-000.10,-000.27,0000.31,0000.18,-000.05,0000.09,0000.06,-000.10,26.3,01.2,0683.8,34.7
2016-04-27T00:22:00Z,0000388,01000608,-000.42,0000.05,0000.33,0000.12,0000.03,0000.12,0000.05,-000.09,0000.07,26.3,01.2,0683.8,34.7
2016-04-27T00:23:00Z,0000388,01000608,0000.23,0000.71,-000.33,-000.11,-000.20,-000.05,-000.14,0000.10,0000.07,26.2,01.2,0683.8,34.7
2016-04-27T00:24:00Z,0000388,01000608,0000.82,-000.06,0000.34,0000.70,0000.05,0000.31,-000.06,-000.06,0000.01,26.3,01.2,0683.9,34.7
2016-04-27T00:25:00Z,0000388,01000608,0000.10,-000.12,0000.27,0000.45,0000.06,-000.31,-000.16,0000.04,-000.06,26.2,01.2,0683.9,34.7
2016-04-27T00:26:00Z,0000388,01000608,0000.28,-000.12,-000.56,-000.14,0000.00,-000.02,0000.19,-000.14,0000.14,26.2,01.2,0683.9,34.7
2016-04-27T00:27:00Z,0000388,01000608,0000.23,0000.04,-000.08,0000.20,0000.25,-000.14,-000.24,0000.09,-000.28,26.2,01.2,0683.9,34.7
2016-04-27T00:28:00Z,0000388,01000608,0000.25,0000.29,0000.12,0000.26,-000.09,0000.12,0000.22,0000.13,0000.16,26.2,01.1,0683.9,34.7
2016-04-27T00:29:00Z,0000388,01000608,0000.15,-000.30,0000.26,0000.12,0000.08,0000.11,-000.01,-000.26,-000.27,26.2,01.1,0683.9,34.7
2016-04-27T00:30:00Z,0000388,01000608,0000.16,-000.16,-000.43,-000.03,0000.25,0000.14,-000.09,-000.01,0000.05,26.2,01.2,0683.9,34.7
2016-04-27T00:31:00Z,0000388,01000608,0000.25,0000.06,-000.11,0000.02,-000.55,0000.34,0000.11,0000.07,-000.02,26.2,01.1,0683.9,34.7
2016-04-27T00:32:00Z,0000388,01000608,0000.91,-000.30,0000.07,0000.26,0000.14,-000.03,0000.05,-000.00,0000.11,26.2,01.1,0683.8,34.7
2016-04-27T00:33:00Z,0000388,01000608,-000.18,0000.28,0000.11,0000.25,0000.48,0000.00,0000.07,0000.03,-000.03,26.2,01.1,0683.8,34.7
2016-04-27T00:34:00Z,0000388,01000608,0000.31,-000.03,-000.09,0000.15,0000.20,-000.02,0000.09,0000.00,0000.15,26.2,01.1,0683.8,34.7
2016-04-27T00:35:00Z,0000388,01000608,-000.72,0000.12,-000.07,0000.11,0000.18,0000.08,-000.27,0000.23,-000.09,26.2,01.2,0683.8,34.7
2016-04-27T00:36:00Z,0000388,01000608,-000.23,-000.12,-000.12,-000.29,-000.08,0000.14,0000.18,0000.05,0000.17,26.2,01.2,0683.7,34.7
2016-04-27T00:37:00Z,0000388,01000608,-000.20,-000.17,0000.07,0000.28,-000.05,-000.05,0000.07,-000.17,-000.06,26.2,01.1,0683.7,34.7
2016-04-27T00:38:00Z,0000388,01000608,0000.11,0000.37,-000.39,0000.25,0000.02,0000.02,-000.01,0000.13,0000.09,26.2,01.1,0683.7,34.7
2016-04-27T00:39:00Z,0000388,01000608,0000.87,-000.61,-000.15,-000.05,0000.63,-000.20,0000.00,0000.01,-000.13,26.2,01.1,0683.7,34.7
2016-04-27T00:40:00Z,0000388,01000608,0000.11,0000.14,-000.05,-000.05,0000.05,0000.19,-000.02,-000.11,-000.19,26.2,01.2,0683.6,34.7
2016-04-27T00:41:00Z,0000388,01000608,-000.44,0000.79,-000.30,0000.23,0000.28,-000.19,0000.07,-000.10,0000.21,26.2,01.2,0683.6,34.7
2016-04-27T00:42:00Z,0000388,01000608,0000.26,0000.12,0000.11,0000.14,0000.54,0000.19,0000.15,0000.15,0000.14,26.2,01.2,0683.6,34.7
2016-04-27T00:43:00Z,0000388,01000608,0000.15,0000.00,-000.43,0000.88,0000.09,-000.14,-000.22,-000.12,-000.26,26.2,01.1,0683.6,34.7
2016-04-27T00:44:00Z,0000388,01000608,0000.91,0000.10,-000.21,0000.60,0000.06,-000.08,0000.07,-000.19,-000.07,26.3,01.2,0683.6,34.7
2016-04-27T00:45:00Z,0000388,01000608,0000.39,-000.49,-000.26,-000.02,0000.03,-000.20,-000.14,0000.22,-000.09,26.2,01.2,0683.5,34.7
2016-04-27T00:46:00Z,0000388,01000608,-000.02,-000.54,0000.02,0000.66,0000.11,-000.09,0000.13,-000.03,0000.28,26.2,01.2,0683.5,34.7
2016-04-27T00:47:00Z,0000388,01000608,0000.25,0000.37,-000.15,0000.28,0000.17,0000.06,0000.17,0000.18,0000.17,26.2,01.1,0683.5,34.7
2016-04-27T00:48:00Z,0000388,01000608,0000.25,0000.64,0000.30,0000.39,0000.03,0000.14,-000.21,-000.14,-000.22,26.2,01.2,0683.4,34.7
2016-04-27T00:49:00Z,0000388,01000608,0001.02,0000.11,0000.32,-000.05,0000.08,0000.22,-000.02,0000.07,0000.03,26.2,01.1,0683.4,34.7
2016-04-27T00:50:00Z,0000388,01000608,0000.37,0000.30,0000.37,0000.15,-000.08,0000.42,0000.07,-000.13,-000.06,26.2,01.1,0683.4,34.7
2016-04-27T00:51:00Z,0000388,01000608,0000.33,-000.12,0000.06,0000.32,-000.17,-000.09,-000.31,-000.03,-000.01,26.2,01.2,0683.4,34.7
2016-04-27T00:52:00Z,0000388,01000608,0000.33,0000.15,0000.30,-000.05,-000.11,0000.28,0000.18,-000.01,0000.04,26.2,01.1,0683.3,34.7
2016-04-27T00:53:00Z,0000388,01000608,0000.26,0000.56,0000.05,0000.32,-000.09,-000.09,0000.09,0000.11,-000.11,26.2,01.1,0683.4,34.7
2016-04-27T00:54:00Z,0000388,01000608,0000.26,-000.29,-000.25,-000.31,-000.06,0000.08,-000.13,-000.00,0000.15,26.2,01.1,0683.3,34.7
2016-04-27T00:55:00Z,0000388,01000608,0000.55,0000.10,0000.12,-000.06,0000.03,-000.12,0000.23,-000.19,-000.23,26.2,01.1,0683.3,34.7
2016-04-27T00:56:00Z,0000388,01000608,0000.32,0000.67,0000.10,0000.15,-000.34,0000.11,-000.13,0000.22,0000.19,26.2,01.0,0683.3,34.7
2016-04-27T00:57:00Z,0000388,40000608,,,,,,,,,,,,0683.3,34.7
2016-04-27T00:58:00Z,0000388,61000608,,,,,,,,,,26.0,01.1,0682.3,34.7
2016-04-27T00:59:00Z,0000388,20000608,,,,,,,,,,26.0,01.1,0682.3,34.7
2016-04-27T01:00:00Z,0000388,20000608,,,,,,,,,,26.0,01.0,0682.3,34.7
2016-04-27T01:01:00Z,0000388,20000608,,,,,,,,,,26.0,01.0,0682.3,34.7
2016-04-27T01:02:00Z,0000388,20000608,,,,,,,,,,26.0,01.0,0682.3,34.7
2016-04-27T01:03:00Z,0000388,60000608,,,,,,,,,,26.1,01.0,0682.2,34.7
2016-04-27T01:04:00Z,0000388,41000608,-000.41,-000.59,0000.09,-000.03,-000.26,-000.11,0000.04,-000.08,0000.03,26.3,01.0,0682.9,34.7
2016-04-27T01:05:00Z,0000388,01000608,-000.04,0000.03,0000.44,-000.51,0000.26,-000.08,0000.10,0000.17,0000.09,26.3,00.9,0683.0,34.7
2016-04-27T01:06:00Z,0000388,01000608,0000.52,-000.33,0000.14,-000.12,0000.20,-000.15,0000.12,-000.03,-000.13,26.3,00.9,0683.0,34.7
2016-04-27T01:07:00Z,0000388,01000608,0001.02,0000.09,0000.36,-000.77,0000.00,0000.09,-000.15,-000.14,-000.32,26.3,00.9,0682.9,34.7
2016-04-27T01:08:00Z,0000388,01000608,0001.08,-000.09,0000.14,-000.20,0000.23,0000.00,0000.01,0000.25,0000.46,26.3,00.9,0682.9,34.7
2016-04-27T01:09:00Z,0000388,01000608,-000.31,0000.07,0000.07,0000.09,0000.09,0000.05,0000.02,-000.17,0000.05,26.3,00.9,0682.9,34.7
2016-04-27T01:10:00Z,0000388,01000608,0000.53,-000.02,0000.41,-000.12,0000.17,0000.12,-000.10,0000.01,-000.31,26.3,00.9,0682.8,34.7
2016-04-27T01:11:00Z,0000388,01000608,0001.06,-000.56,-000.11,0000.32,0000.45,0000.31,0000.09,0000.05,-000.07,26.3,00.9,0682.8,34.7
2016-04-27T01:12:00Z,0000388,01000608,0000.59,0000.29,0000.10,-000.68,-000.08,0000.09,-000.17,-000.18,0000.15,26.3,00.9,0682.7,34.7
2016-04-27T01:13:00Z,0000388,01000608,-000.22,0000.06,-000.10,-000.48,0000.00,-000.09,0000.00,0000.13,0000.04,26.3,00.8,0682.8,34.7
2016-04-27T01:14:00Z,0000388,01000608,0000.71,-000.14,0000.09,-000.50,0000.23,0000.36,0000.19,0000.03,-000.02,26.3,00.8,0682.7,34.7
2016-04-27T01:15:00Z,0000388,01000608,-000.67,-000.04,0000.25,-000.45,0000.25,-000.05,-000.32,-000.16,-000.37,26.3,00.8,0682.6,34.7
2016-04-27T01:16:00Z,0000388,01000608,0000.78,0000.00,-000.12,-000.26,0000.23,-000.09,0000.21,0000.05,0000.33,26.3,00.8,0682.6,34.7
2016-04-27T01:17:00Z,0000388,01000608,-000.54,-000.21,0000.03,0000.12,0000.23,-000.25,-000.16,-000.10,-000.30,26.3,00.8,0682.6,34.7
2016-04-27T01:18:00Z,0000388,01000608,-000.48,-000.58,0000.00,-000.11,0000.46,0000.03,-000.02,0000.02,0000.11,26.3,00.7,0682.5,34.7
2016-04-27T01:19:00Z,0000388,01000608,0000.47,-000.45,0000.36,0000.11,0000.39,0000.12,-000.00,-000.14,-000.08,26.3,00.7,0682.4,34.7
2016-04-27T01:20:00Z,0000388,01000608,-000.43,0000.30,0000.12,0000.14,0000.25,0000.34,-000.10,0000.06,0000.04,26.3,00.7,0682.4,34.7
2016-04-27T01:21:00Z,0000388,01000608,-000.27,-000.19,0000.20,-000.26,0000.23,0000.05,-000.05,-000.05,-000.12,26.3,00.6,0682.3,34.7
2016-04-27T01:22:00Z,0000388,01000608,0000.21,-000.28,0000.00,-000.15,0000.45,0000.00,0000.15,0000.11,0000.22,26.3,00.6,0682.2,34.7
2016-04-27T01:23:00Z,0000388,01000608,-000.32,-000.12,-000.10,-000.43,0000.12,-000.26,0000.10,-000.05,0000.05,26.3,00.6,0682.2,34.7
2016-04-27T01:24:00Z,0000388,01000608,0000.14,-000.31,-000.24,-000.22,0000.28,0000.08,-000.12,-000.28,-000.45,26.3,00.6,0682.1,34.7
2016-04-27T01:25:00Z,0000388,01000608,-000.71,-000.16,0000.31,-000.25,0000.17,-000.11,-000.11,0000.15,-000.05,26.3,00.6,0682.1,34.7
2016-04-27T01:26:00Z,0000388,01000608,0000.18,-000.26,0000.03,-000.53,-000.12,0000.12,-000.03,0000.08,0000.00,26.3,00.6,0682.0,34.7
2016-04-27T01:27:00Z,0000388,01000608,-000.66,-000.35,-000.02,0000.08,-000.12,0000.00,0000.08,-000.13,0000.30,26.3,00.6,0681.9,34.7
2016-04-27T01:28:00Z,0000388,01000608,-000.07,-000.19,0000.05,-000.70,0000.23,0000.08,-000.05,0000.09,-000.45,26.3,00.6,0681.9,34.7
2016-04-27T01:29:00Z,0000388,01000608,-000.12,0000.16,-000.15,-000.62,0000.57,-000.02,0000.10,0000.06,0000.40,26.3,00.6,0681.8,34.7
2016-04-27T01:30:00Z,0000388,01000608,-000.16,-000.09,0000.48,-000.34,-000.19,0000.60,0000.03,-000.17,-000.18,26.3,00.5,0681.8,34.8
2016-04-27T01:31:00Z,0000388,01000608,0000.14,0000.67,0000.13,0000.46,0000.42,0000.22,0000.06,0000.07,0000.01,26.3,00.5,0681.7,34.8
2016-04-27T01:32:00Z,0000388,01000608,0000.79,-000.26,0000.15,-000.50,0000.05,-000.09,-000.09,-000.12,0000.08,26.3,00.5,0681.7,34.8
2016-04-27T01:33:00Z,0000388,01000608,0000.14,0000.08,-000.18,-000.39,0000.02,-000.06,-000.01,-000.04,0000.00,26.3,00.5,0681.6,34.8
2016-04-27T01:34:00Z,0000388,01000608,0000.35,-000.43,0000.19,-000.51,0000.11,-000.26,-000.02,0000.14,0000.01,26.3,00.5,0681.6,34.8
2016-04-27T01:35:00Z,0000388,01000608,0000.18,-000.49,0000.14,-000.16,0000.20,0000.03,0000.11,0000.01,-000.03,26.3,00.5,0681.5,34.8
2016-04-27T01:36:00Z,0000388,01000608,-000.48,0000.00,-000.29,-000.59,0000.03,0000.03,0000.07,-000.14,-000.06,26.3,00.6,0681.5,34.8
2016-04-27T01:37:00Z,0000388,01000608,0000.18,-000.12,-000.03,-000.02,0000.08,0000.00,-000.09,0000.19,-000.01,26.2,00.5,0681.4,34.8
2016-04-27T01:38:00Z,0000388,01000608,0000.48,-000.05,0000.02,0000.34,0000.29,-000.22,-000.10,-000.20,0000.22,26.3,00.5,0681.4,34.8
2016-04-27T01:39:00Z,0000388,01000608,0000.09,-000.19,0000.02,-000.43,0000.15,0000.03,-000.26,0000.02,-000.26,26.3,00.5,0681.4,34.8
2016-04-27T01:40:00Z,0000388,01000608,-000.09,-000.48,0000.16,-000.23,0000.02,0000.06,0000.26,0000.05,0000.04,26.3,00.5,0681.3,34.8
2016-04-27T01:41:00Z,0000388,01000608,-000.12,0000.08,0000.12,0000.11,0000.31,0000.29,-000.01,-000.02,-000.16,26.2,00.5,0681.2,34.8
2016-04-27T01:42:00Z,0000388,01000608,0000.87,-000.24,0000.15,0000.12,-000.02,0000.19,0000.00,-000.05,0000.12,26.3,00.5,0681.1,34.8
2016-04-27T01:43:00Z,0000388,01000608,0000.32,-000.03,-000.34,0000.22,0000.36,-000.12,-000.10,0000.30,-000.02,26.2,00.4,0681.1,34.8
2016-04-27T01:44:00Z,0000388,01000608,0000.09,0000.00,0000.07,-000.59,0000.71,0000.26,0000.07,-000.06,0000.31,26.3,00.5,0681.0,34.8
2016-04-27T01:45:00Z,0000388,01000608,0000.26,0000.42,-000.06,-000.76,0000.06,0000.22,0000.23,0000.07,-000.36,26.3,00.5,0680.9,34.7
2016-04-27T01:46:00Z,0000388,01000608,0000.35,-000.23,0000.30,-000.16,0000.43,-000.02,0000.17,0000.01,0000.32,26.3,00.6,0680.8,34.7
2016-04-27T01:47:00Z,0000388,01000608,0000.54,-000.63,-000.24,-000.14,0000.19,0000.00,0000.02,0000.07,0000.12,26.2,00.6,0680.8,34.7
2016-04-27T01:48:00Z,0000388,01000608,0000.04,0000.09,-000.14,-000.36,0000.60,0000.05,-000.04,0000.03,-000.35,26.2,00.6,0680.7,34.7
2016-04-27T01:49:00Z,0000388,01000608,0000.08,0000.03,0000.03,-000.48,0000.32,-000.09,0000.05,-000.09,0000.47,26.2,00.6,0680.7,34.7
2016-04-27T01:50:00Z,0000388,01000608,0000.30,0000.18,0000.03,0000.08,0000.45,0000.26,-000.07,0000.23,-000.06,26.2,00.5,0680.6,34.7
2016-04-27T01:51:00Z,0000388,01000608,0000.14,0000.29,0000.07,-000.47,0000.11,0000.08,-000.04,-000.25,-000.25,26.2,00.6,0680.5,34.7
2016-04-27T01:52:00Z,0000388,01000608,0000.47,-000.04,0000.07,-000.06,0000.45,-000.06,0000.23,0000.25,0000.13,26.2,00.6,0680.5,34.7
2016-04-27T01:53:00Z,0000388,01000608,-000.76,0000.83,-000.22,-000.29,0000.20,-000.22,-000.12,0000.09,0000.28,26.2,00.6,0680.4,34.7
2016-04-27T01:54:00Z,0000388,01000608,0000.39,0000.42,0000.00,-000.87,0000.23,0000.05,0000.13,0000.19,-000.06,26.2,00.7,0680.3,34.7
2016-04-27T01:55:00Z,0000388,01000608,0000.49,-000.23,0000.10,-000.37,0000.08,-000.03,-000.11,-000.01,-000.01,26.2,00.7,0680.3,34.7
2016-04-27T01:56:00Z,0000388,01000608,0000.13,-000.43,0000.00,-000.25,0000.05,0000.16,0000.06,-000.09,0000.17,26.2,00.8,0680.2,34.7
2016-04-27T01:57:00Z,0000388,40000608,,,,,,,,,,,,0680.1,34.7
2016-04-27T01:58:00Z,0000388,61000608,,,,,,,,,,26.0,00.8,0679.3,34.7
2016-04-27T01:59:00Z,0000388,21000608,,,,,,,,,,26.0,00.8,0679.3,34.7
2016-04-27T02:00:00Z,0000388,21000608,,,,,,,,,,26.0,00.8,0679.3,34.7
2016-04-27T02:01:00Z,0000388,21000608,,,,,,,,,,26.0,00.8,0679.3,34.7
2016-04-27T02:02:00Z,0000388,21010608,,,,,,,,,,26.0,00.8,0679.3,34.7
2016-04-27T02:03:00Z,0000388,61000608,,,,,,,,,,26.1,00.8,0679.3,34.7
2016-04-27T02:04:00Z,0000388,41000608,0000.19,0000.39,0000.31,0000.08,-000.05,-000.06,0000.10,0000.01,0000.28,26.2,00.8,0680.0,34.7
2016-04-27T02:05:00Z,0000388,01000608,-000.35,0000.00,0000.02,0000.20,-000.49,-000.09,-000.15,-000.19,-000.35,26.2,00.7,0680.1,34.7
2016-04-27T02:06:00Z,0000388,01000608,0000.58,0000.45,0000.10,-000.06,-000.32,-000.02,-000.01,0000.24,0000.06,26.2,00.6,0680.0,34.7
2016-04-27T02:07:00Z,0000388,01000608,-000.85,-000.04,0000.12,0000.30,0000.02,-000.16,0000.12,-000.02,0000.09,26.2,00.7,0680.0,34.7
2016-04-27T02:08:00Z,0000388,01000608,-000.26,0000.02,0000.34,-000.14,0000.09,-000.30,-000.21,-000.18,-000.25,26.2,00.7,0679.9,34.7
2016-04-27T02:09:00Z,0000388,01000608,0000.67,0000.17,0000.09,0000.02,-000.20,-000.06,0000.14,0000.14,0000.12,26.2,00.7,0679.9,34.7
2016-04-27T02:10:00Z,0000388,01000608,-000.20,-000.15,0000.29,-000.16,-000.06,0000.20,0000.11,0000.01,-000.23,26.2,00.7,0679.9,34.7
2016-04-27T02:11:00Z,0000388,01000608,-000.38,-000.26,0000.19,0000.22,-000.32,0000.00,0000.04,0000.18,0000.38,26.2,00.7,0679.9,34.7
2016-04-27T02:12:00Z,0000388,01000608,0000.74,-000.27,0000.00,0000.53,0000.08,0000.03,-000.02,-000.18,-000.33,26.2,00.8,0679.9,34.7
2016-04-27T02:13:00Z,0000388,01000608,-000.30,-000.26,0000.12,0000.06,-000.23,-000.05,-000.05,-000.08,0000.32,26.2,00.6,0679.9,34.7
2016-04-27T02:14:00Z,0000388,01000608,0000.58,-000.25,-000.15,0000.23,0000.25,0000.14,-000.08,0000.03,-000.17,26.2,00.7,0679.9,34.7
2016-04-27T02:15:00Z,0000388,01000608,0000.32,0000.06,-000.02,0000.28,-000.15,0000.19,0000.21,0000.07,-000.11,26.2,00.8,0679.9,34.7
2016-04-27T02:16:00Z,0000388,01000608,-000.70,-000.53,0000.22,-000.12,-000.22,0000.12,-000.21,-000.01,-000.02,26.2,00.7,0679.8,34.7
2016-04-27T02:17:00Z,0000388,01000608,-000.80,-000.56,-000.22,0000.16,0000.00,-000.16,0000.21,-000.09,0000.04,26.2,00.7,0679.8,34.7
2016-04-27T02:18:00Z,0000388,01000608,0001.06,-000.35,0000.06,-000.25,0000.05,0000.11,-000.08,0000.04,-000.02,26.2,00.8,0679.8,34.7
2016-04-27T02:19:00Z,0000388,01000608,-000.03,0000.19,0000.06,0000.05,0000.22,-000.40,-000.01,0000.14,0000.29,26.2,00.7,0679.7,34.7
2016-04-27T02:20:00Z,0000388,01000608,0000.45,0000.09,-000.19,0000.39,-000.11,-000.06,-000.20,-000.26,0000.02,26.2,00.8,0679.7,34.7
2016-04-27T02:21:00Z,0000388,01000608,0000.32,-000.26,-000.09,-000.34,-000.12,-000.03,0000.20,0000.03,-000.16,26.2,00.8,0679.7,34.7
2016-04-27T02:22:00Z,0000388,01000608,-000.23,0000.20,0000.21,0000.31,-000.19,0000.14,-000.21,0000.15,-000.03,26.2,00.9,0679.7,34.7
2016-04-27T02:23:00Z,0000388,01000608,0000.83,-000.65,0000.23,0000.37,-000.09,0000.02,0000.03,0000.11,0000.07,26.2,00.8,0679.7,34.7
2016-04-27T02:24:00Z,0000388,01000608,0000.27,0000.00,-000.05,-000.28,0000.32,0000.11,0000.15,-000.08,0000.02,26.2,00.8,0679.6,34.7
2016-04-27T02:25:00Z,0000388,01000608,-000.12,0000.12,0000.12,-000.31,-000.15,-000.09,0000.12,-000.01,0000.24,26.2,00.8,0679.6,34.7
2016-04-27T02:26:00Z,0000388,01000608,0000.25,0000.09,-000.09,0000.02,0000.32,-000.14,0000.28,0000.12,-000.12,26.2,00.8,0679.6,34.7
2016-04-27T02:27:00Z,0000388,01000608,-000.02,-000.25,0000.20,-000.05,-000.12,0000.03,-000.12,-000.03,-000.04,26.2,00.7,0679.6,34.7
2016-04-27T02:28:00Z,0000388,01000608,-000.48,0000.08,0000.06,0000.26,-000.20,0000.12,-000.07,0000.19,0000.05,26.2,00.8,0679.5,34.7
2016-04-27T02:29:00Z,0000388,01000608,0000.46,0000.07,-000.08,0000.08,-000.28,-000.31,0000.08,0000.03,0000.03,26.2,00.8,0679.5,34.7
2016-04-27T02:30:00Z,0000388,01000608,0000.38,-000.21,0000.06,-000.30,-000.06,0000.16,0000.06,-000.07,0000.04,26.2,00.8,0679.5,34.7
2016-04-27T02:31:00Z,0000388,01000608,0000.04,-000.09,0000.49,0000.14,0000.08,-000.06,-000.08,-000.03,-000.04,26.2,00.8,0679.5,34.7
2016-04-27T02:32:00Z,0000388,01000608,-000.58,0000.08,0000.36,0000.30,0000.08,-000.02,0000.08,0000.15,0000.07,26.2,00.8,0679.5,34.7
2016-04-27T02:33:00Z,0000388,01000608,0000.00,0000.53,0000.12,0000.08,-000.34,0000.11,0000.01,-000.09,-000.02,26.2,00.8,0679.5,34.7
2016-04-27T02:34:00Z,0000388,01000608,0000.23,0000.62,0000.42,-000.30,-000.31,0000.09,-000.15,-000.05,-000.09,26.2,00.9,0679.4,34.7
2016-04-27T02:35:00Z,0000388,01000608,0000.34,-000.33,0000.29,0000.08,0000.23,0000.33,-000.29,-000.07,-000.17,26.2,00.8,0679.4,34.7
2016-04-27T02:36:00Z,0000388,01000608,0000.29,0000.07,-000.02,0000.26,-000.32,-000.09,0000.31,0000.17,0000.21,26.2,00.8,0679.5,34.7
2016-04-27T02:37:00Z,0000388,01000608,-000.74,0000.09,0000.18,-000.36,-000.05,0000.09,0000.10,-000.15,-000.00,26.2,00.8,0679.4,34.7
2016-04-27T02:38:00Z,0000388,01000608,-000.16,0000.54,0000.02,-000.58,-000.31,0000.16,0000.01,-000.01,-000.07,26.2,00.8,0679.4,34.7
2016-04-27T02:39:00Z,0000388,01000608,0000.21,-000.38,0000.24,0000.06,0000.19,-000.09,-000.05,-000.05,-000.34,26.2,00.8,0679.5,34.7
2016-04-27T02:40:00Z,0000388,01000608,0000.78,0000.42,-000.02,-000.17,-000.08,0000.06,-000.13,-000.02,0000.18,26.2,00.8,0679.5,34.7
2016-04-27T02:41:00Z,0000388,01000608,0000.25,0000.14,0000.05,0000.28,-000.19,0000.11,0000.03,-000.03,-000.04,26.1,00.9,0679.4,34.7
2016-04-27T02:42:00Z,0000388,01000608,0000.18,0000.21,0000.17,-000.20,-000.28,0000.20,0000.15,0000.17,0000.31,26.1,00.8,0679.4,34.7
2016-04-27T02:43:00Z,0000388,01000608,0000.34,0000.23,0000.21,-000.37,-000.08,0000.16,-000.10,-000.17,-000.16,26.1,00.8,0679.4,34.7
2016-04-27T02:44:00Z,0000388,01000608,0000.86,0000.03,0000.16,0000.45,-000.17,0000.19,-000.05,0000.11,-000.36,26.1,00.8,0679.4,34.7
2016-04-27T02:45:00Z,0000388,01000608,0000.06,0000.16,0000.20,0000.56,-000.14,0000.00,0000.01,0000.05,0000.33,26.1,00.8,0679.4,34.7
2016-04-27T02:46:00Z,0000388,01000608,0000.15,-000.04,0000.28,0000.45,0000.19,0000.12,-000.04,-000.02,-000.22,26.1,00.7,0679.4,34.7
2016-04-27T02:47:00Z,0000388,01000608,-000.09,-000.02,0000.70,0000.05,0000.08,0000.06,0000.03,-000.04,0000.00,26.1,00.8,0679.4,34.7
2016-04-27T02:48:00Z,0000388,01000608,0000.50,-000.02,-000.04,0000.19,0000.05,0000.16,0000.06,-000.04,0000.20,26.1,00.8,0679.4,34.7
2016-04-27T02:49:00Z,0000388,01000608,0000.23,0000.04,0000.74,0000.06,-000.28,-000.09,0000.01,-000.37,0000.06,26.1,00.7,0679.4,34.7
2016-04-27T02:50:00Z,0000388,01000608,0000.39,0000.24,0000.60,0000.09,0000.02,0000.16,-000.12,0000.20,-000.33,26.1,00.7,0679.4,34.7
2016-04-27T02:51:00Z,0000388,01000608,0000.62,0000.34,-000.02,-000.58,-000.12,-000.05,-000.01,0000.17,-000.19,26.2,00.8,0679.4,34.7
2016-04-27T02:52:00Z,0000388,01000608,-000.22,-000.10,-000.21,-000.11,-000.43,0000.03,0000.06,-000.05,0000.23,26.2,00.8,0679.3,34.7
2016-04-27T02:53:00Z,0000388,01000608,0000.18,0000.00,-000.09,0000.02,0000.06,-000.16,-000.13,-000.22,0000.06,26.2,00.7,0679.3,34.7
2016-04-27T02:54:00Z,0000388,01000608,0000.37,0000.05,-000.14,-000.22,-000.17,-000.25,0000.19,0000.15,0000.12,26.2,00.7,0679.3,34.7
2016-04-27T02:55:00Z,0000388,01000608,0000.23,-000.27,0000.19,0000.28,0000.02,0000.25,-000.27,-000.05,-000.30,26.2,00.8,0679.3,34.7
2016-04-27T02:56:00Z,0000388,01000608,-000.96,0000.05,0000.91,-000.36,-000.25,0000.42,0000.08,0000.04,0000.72,26.2,00.8,0679.3,34.7
2016-04-27T02:57:00Z,0000388,40000608,,,,,,,,,,,,0678.9,34.7
2016-04-27T02:58:00Z,0000388,61000608,,,,,,,,,,26.1,00.8,0678.5,34.7
2016-04-27T02:59:00Z,0000388,21000608,,,,,,,,,,26.0,00.8,0678.4,34.7
2016-04-27T03:00:00Z,0000388,21000608,,,,,,,,,,26.0,00.8,0678.4,34.7
2016-04-27T03:01:00Z,0000388,21000608,,,,,,,,,,26.0,00.8,0678.4,34.7
2016-04-27T03:02:00Z,0000388,21000608,,,,,,,,,,26.0,00.8,0678.4,34.7
2016-04-27T03:03:00Z,0000388,61000608,,,,,,,,,,26.1,00.8,0678.4,34.7
2016-04-27T03:04:00Z,0000388,41000608,-000.50,0000.11,-000.19,0000.47,0000.33,-000.37,0000.15,0000.08,0000.22,26.2,00.9,0679.1,34.7
2016-04-27T03:05:00Z,0000388,01000608,-000.91,-000.33,0000.17,0000.33,0000.08,-000.40,0000.01,0000.19,0000.05,26.2,00.9,0679.2,34.7
2016-04-27T03:06:00Z,0000388,01000608,-000.59,0000.02,-000.19,0000.12,0000.14,-000.17,0000.20,-000.03,0000.22,26.2,00.9,0679.2,34.7
2016-04-27T03:07:00Z,0000388,01000608,-000.59,0000.14,-000.12,-000.11,-000.03,-000.22,0000.01,-000.07,-000.07,26.2,01.0,0679.2,34.7
2016-04-27T03:08:00Z,0000388,01000608,-000.66,0000.30,-000.15,0000.64,0000.15,-000.53,-000.09,0000.22,-000.03,26.2,00.9,0679.2,34.7
2016-04-27T03:09:00Z,0000388,01000608,-000.66,-000.12,-000.07,0000.11,0000.50,-000.14,-000.13,-000.31,-000.25,26.2,01.0,0679.1,34.7
2016-04-27T03:10:00Z,0000388,01000608,-001.07,-000.60,-000.31,0000.86,0000.25,-000.25,0000.18,0000.06,0000.13,26.2,01.0,0679.1,34.7
2016-04-27T03:11:00Z,0000388,01000608,-000.63,-000.07,-000.02,-000.02,-000.03,-000.34,0000.04,0000.08,0000.11,26.2,00.9,0679.2,34.7
2016-04-27T03:12:00Z,0000388,01000608,-000.52,-000.12,0000.14,0000.39,-000.17,-000.02,0000.10,0000.08,-000.09,26.2,00.8,0679.2,34.7